www.pogodaiklimat.ru

Погода и климат >> Архив погоды >> Испания >> Аликанте аэропорт


ПОГОДА в Аликанте аэропорту

  • Прогноз погоды в Аликанте аэропорту
  • Монитор погоды в Аликанте аэропорту

АРХИВ ПОГОДЫ в Аликанте аэропорту

Время (UTC), дата Ветер
(напр.,м/с)
 
Видим.   Явления Облачность Т
(С)
Тd
(С)
f
(%)
Тe
(С)
Тes
(С)
Комфортность P
(гПа)
Po
(гПа)
Тmin
(С)
Tmax
(С)
R
(мм)
R24
(мм)
S
(см)
22 10.06 штиль 0 н/о н/о +19.7 +16.3 81 +22 +22 комфорт 1012.8 1009.1
23 10.06 штиль 0 н/о н/о +18.1 +15.0 82 +18 +18 1012.2 1008.6
00 11.06 СЗ 1 20 км ясно +17.5 +15.1 86 +19 +19 1011.6 1008.0
01 11.06 З 2 н/о н/о +17.1 +15.1 88 +18 +18 1011.0 1007.4
02 11.06 СЗ 2 н/о н/о +16.9 +15.2 90 +17 +17 1010.4 1006.8
03 11.06 штиль 0 10 км 3/3 50 м
[St]
+16.7 +15.4 92 +17 +17 1009.8 1006.2
04 11.06 СЗ 1 н/о н/о +15.8 +14.7 93 +16 +16 1009.3 1005.7
05 11.06 С 2 н/о н/о +16.6 +15.3 92 +17 +17 1009.5 1005.9
06 11.06 С 3 12 км 3/3 200 м
[St Ci fib]
+18.9 +15.9 83 +20 +21 1009.8 1006.1 +15.5
07 11.06 СВ 2 н/о н/о +21.7 +16.2 71 +25 +25 комфорт 1009.8 1006.2
08 11.06 СВ 4 н/о н/о +21.7 +16.5 72 +26 +26 душно 1009.8 1006.2
09 11.06 В 4 15 км 4/4 600 м
[Cu hum]
+23.0 +16.7 68 +28 +33 душно 1009.4 1005.8
10 11.06 В 5 н/о н/о +23.2 +16.1 64 +28 +28 душно 1009.5 1005.9
11 11.06 В 6 н/о н/о +23.7 +15.9 62 +27 +27 жарко 1009.3 1005.7
12 11.06 В 6 15 км 1/1 300 м
[St]
+23.3 +15.6 62 +28 +36 душно 1009.2 1005.6
13 11.06 В 5 н/о н/о +24.2 +15.7 59 +27 +27 жарко 1009.0 1005.4
14 11.06 В 6 н/о н/о +23.7 +15.3 59 +27 +27 жарко 1009.1 1005.5
15 11.06 В 6 20 км 9/5 600 м
[Sc Cs]
+23.0 +15.9 64 +27 +30 душно 1009.5 1005.9
16 11.06 В 11 н/о н/о +22.1 +15.7 67 +26 +26 душно 1009.6 1006.0
17 11.06 В 10 н/о н/о +20.4 +14.7 70 +22 +22 комфорт 1010.2 1006.5
18 11.06 В 10 15 км 9/1 600 м
[Cu Sc Ac As Cs]
+19.7 +13.8 69 +21 +21 комфорт 1011.0 1007.3 +24.5
19 11.06 В 7 н/о н/о +19.5 +12.7 65 +20 +20 1011.6 1007.9
20 11.06 СВ 5 н/о н/о +19.6 +11.9 61 +21 +21 комфорт 1012.6 1008.9
21 11.06 СВ 5 45 км 8/4 600 м
[Cu Sc Ac und]
+18.9 +11.0 60 +19 +19 1013.4 1009.8
22 11.06 СВ 5 н/о н/о +18.6 +9.9 57 +19 +19 1013.4 1009.8
23 11.06 СВ 2 н/о н/о +18.1 +10.7 62 +19 +19 1013.7 1010.1
00 12.06 В 5 45 км 3/3 1000 м
[Cu Sc]
+16.4 +11.3 72 +15 +15 1013.9 1010.3
01 12.06 С 2 н/о н/о +16.5 +11.0 70 +17 +17 1013.6 1010.0
02 12.06 З 2 н/о н/о +15.6 +10.4 71 +16 +16 1013.4 1009.7
03 12.06 З 2 50 км ясно +14.4 +9.8 74 +14 +14 1013.8 1010.1
04 12.06 СЗ 3 н/о н/о +15.1 +9.5 69 +15 +15 1014.1 1010.4
05 12.06 СЗ 4 н/о н/о +14.7 +8.9 68 +14 +14 1014.6 1010.9
06 12.06 СЗ 3 30 км 4/0
[Ac und Ci fib]
+16.6 +8.8 60 +16 +17 1014.8 1011.2 +14.4
07 12.06 СЗ 1 н/о н/о +19.5 +8.8 50 +21 +21 комфорт 1015.3 1011.7
08 12.06 СВ 2 н/о н/о +20.8 +8.1 44 +23 +23 комфорт 1015.2 1011.5
09 12.06 В 3 55 км 6/0
[Ci sp]
+21.6 +6.8 38 +22 +31 комфорт 1015.0 1011.3
10 12.06 В 5 н/о н/о +22.7 +7.4 37 +24 +24 комфорт 1015.1 1011.4
11 12.06 В 7 н/о н/о +22.7 +8.5 40 +24 +24 комфорт 1014.8 1011.2
12 12.06 В 9 45 км 3/0
[Ci sp]
+22.4 +11.2 49 +25 +27 комфорт 1014.7 1011.1
13 12.06 СВ 9 н/о н/о +22.7 +10.2 45 +25 +25 комфорт 1014.3 1010.7
14 12.06 В 8 н/о н/о +22.2 +11.0 49 +24 +24 комфорт 1013.9 1010.3
15 12.06 СВ 8 50 км ясно +21.7 +14.1 62 +25 +27 комфорт 1014.0 1010.3
16 12.06 СВ 8 н/о н/о +21.2 +13.9 63 +24 +24 комфорт 1013.7 1010.0
17 12.06 В 7 н/о н/о +20.8 +14.7 68 +23 +23 комфорт 1013.2 1009.5
18 12.06 В 7 40 км 3/3 1500 м
[Cu Sc]
+20.1 +15.3 74 +22 +22 комфорт 1013.1 1009.4 +23.2
19 12.06 В 7 н/о н/о +19.5 +15.0 75 +21 +21 комфорт 1013.1 1009.4
20 12.06 СВ 6 н/о н/о +19.5 +15.6 78 +21 +21 комфорт 1013.4 1009.7
21 12.06 СВ 5 15 км 4/4 300 м
[Cu Sc]
+19.6 +16.1 80 +22 +22 комфорт 1013.8 1010.1
22 12.06 СВ 5 н/о н/о +19.6 +16.4 82 +22 +22 комфорт 1013.9 1010.2
23 12.06 СВ 5 н/о н/о +19.7 +16.9 84 +22 +22 комфорт 1013.7 1010.0
00 13.06 СВ 3 н/о н/о +19.7 +17.3 86 +22 +22 комфорт 1013.4 1009.7
01 13.06 СВ 5 н/о н/о +19.9 +18.0 89 +23 +23 комфорт 1012.8 1009.1
02 13.06 СВ 5 н/о н/о +19.9 +17.7 87 +23 +23 комфорт 1012.0 1008.3
03 13.06 СВ 5 20 км 8/5 300 м
[Cu Sc Ac As Cs]
+19.4 +16.8 85 +21 +21 комфорт 1011.9 1008.2
04 13.06 СВ 4 н/о н/о +19.2 +16.6 85 +21 +21 комфорт 1012.0 1008.3
05 13.06 СВ 4 н/о н/о +18.9 +16.3 85 +20 +20 1012.2 1008.5
06 13.06 СВ 3 15 км 9/6 300 м
[Cu Sc Ac As Cs]
+19.7 +15.8 78 +22 +22 комфорт 1012.5 1008.8 +18.9
07 13.06 СВ 4 н/о н/о +21.3 +14.5 65 +24 +24 комфорт 1013.1 1009.4
08 13.06 СВ 6 н/о н/о +22.7 +13.4 56 +26 +26 жарко 1012.6 1009.0
09 13.06 СВ 6 30 км 8/1 1000 м
[Cu hum Ac trans Cs]
+24.2 +13.6 52 +26 +29 жарко 1012.3 1008.7
10 13.06 В 9 н/о н/о +23.8 +14.5 56 +26 +26 жарко 1012.0 1008.4
11 13.06 В 10 н/о н/о +24.1 +15.3 58 +27 +27 жарко 1011.3 1007.7
12 13.06 В 9 30 км 1/0
[Cc]
+24.5 +14.7 54 +27 +29 жарко 1010.9 1007.3
13 13.06 В 10 н/о н/о +25.0 +13.3 48 +27 +27 жарко 1010.3 1006.7
14 13.06 В 9 н/о н/о +24.9 +13.1 48 +27 +27 жарко 1009.7 1006.1
15 13.06 В 10 30 км ясно +24.7 +14.9 54 +27 +28 жарко 1009.1 1005.5
16 13.06 В 8 н/о н/о +24.2 +15.6 59 +27 +27 жарко 1008.8 1005.2
17 13.06 В 8 н/о н/о +23.5 +14.8 58 +26 +26 жарко 1008.6 1005.0
18 13.06 В 6 30 км ясно +22.7 +14.5 60 +26 +27 жарко 1008.5 1004.9 +25.7
19 13.06 В 7 н/о н/о +21.5 +14.6 65 +25 +25 комфорт 1008.7 1005.1
20 13.06 В 6 н/о н/о +21.6 +14.0 62 +24 +24 комфорт 1008.8 1005.2
21 13.06 ЮЗ 3 20 км 3/0
[Ci fib]
+20.5 +14.2 67 +23 +23 комфорт 1010.6 1006.9
22 13.06 ЮЗ 3 н/о н/о +19.7 +13.8 69 +22 +22 комфорт 1009.9 1006.2
23 13.06 З 4 н/о н/о +20.0 +11.5 58 +22 +22 комфорт 1009.1 1005.4
00 14.06 З 5 30 км 5/0
[Cs]
+20.2 +10.4 53 +22 +22 комфорт 1008.6 1004.9
01 14.06 З 5 н/о н/о +20.6 +9.7 50 +22 +22 комфорт 1009.4 1005.7
02 14.06 ЮЗ 4 н/о н/о +20.3 +8.9 48 +22 +22 комфорт 1009.2 1005.5
03 14.06 ЮЗ 3 30 км 8/0
[Ac trans Cs]
+20.1 +9.6 51 +22 +22 комфорт 1009.1 1005.4
04 14.06 З 4 н/о н/о +19.1 +9.0 52 +20 +20 1009.5 1005.8
05 14.06 З 3 н/о н/о +18.9 +8.8 52 +20 +20 1010.8 1007.1
06 14.06 ЮЗ 2 30 км 6/0
[Cs]
+20.1 +9.9 52 +22 +23 комфорт 1011.1 1007.4 +18.7
07 14.06 ЮЗ 3 н/о н/о +22.0 +12.0 53 +24 +24 комфорт 1011.5 1007.9
08 14.06 ЮЗ 4 н/о н/о +22.0 +13.9 60 +25 +25 комфорт 1012.1 1008.5
09 14.06 З 3 30 км в посл. час дождь 4/1 600 м
[Sc diur, vesp Ac trans Ci sp]
+20.6 +15.8 74 +24 +32 комфорт 1012.7 1009.0 0.3
10 14.06 ЮЗ 5 н/о н/о +24.6 +15.0 55 +27 +27 жарко 1012.5 1008.9
11 14.06 Ю 4 н/о н/о +26.9 +14.7 47 +29 +29 жарко 1012.2 1008.6
12 14.06 Ю 5 25 км {дождь} ясно +26.7 +17.3 56 +31 +41 душно 1012.0 1008.4
13 14.06 Ю 6 н/о н/о +27.1 +17.5 56 +31 +31 душно 1011.7 1008.2
14 14.06 Ю 7 н/о н/о +29.0 +16.3 46 +32 +32 душно 1011.3 1007.8
15 14.06 Ю 7 25 км ясно +27.7 +14.3 44 +30 +33 жарко 1011.3 1007.8
16 14.06 Ю 6 н/о н/о +26.8 +13.5 44 +29 +29 жарко 1011.3 1007.7
17 14.06 Ю 5 н/о н/о +26.7 +14.4 47 +29 +29 жарко 1011.2 1007.6
18 14.06 Ю 4 30 км 4/0
[Ci sp]
+25.6 +15.0 52 +28 +29 жарко 1011.5 1007.9 +29.0
19 14.06 ЮВ 2 н/о н/о +23.7 +14.9 58 +27 +27 жарко 1012.0 1008.4
20 14.06 штиль 0 н/о н/о +22.2 +15.3 65 +26 +26 душно 1012.5 1008.9
21 14.06 В 2 15 км 4/0
[Cs]
+21.7 +16.0 70 +25 +25 комфорт 1013.2 1009.6
22 14.06 Ю 1 н/о н/о +20.5 +16.5 78 +25 +25 комфорт 1013.6 1009.9
23 14.06 З 1 н/о н/о +20.3 +16.3 78 +25 +25 комфорт 1013.8 1010.1
00 15.06 З 1 15 км ясно +19.1 +15.4 79 +22 +22 комфорт 1013.5 1009.8
01 15.06 СЗ 1 н/о н/о +23.0 +3.4 28 +23 +23 комфорт 1013.3 1009.7
02 15.06 СЗ 10 н/о н/о +23.2 +3.7 28 +23 +23 комфорт 1013.3 1009.7
03 15.06 СЗ 11 20 км ясно +22.5 +3.6 29 +22 +22 комфорт 1013.3 1009.7
04 15.06 СЗ 9 н/о н/о +21.7 +3.8 31 +22 +22 комфорт 1014.4 1010.7
05 15.06 СЗ 6 н/о н/о +21.2 +3.8 32 +21 +21 комфорт 1015.4 1011.7
06 15.06 СЗ 6 50 км 1/1 600 м
[Cu hum]
+21.4 +4.0 32 +22 +22 комфорт 1015.8 1012.1 +18.2
07 15.06 СЗ 5 н/о н/о +23.0 +4.5 30 +23 +23 комфорт 1016.7 1013.0
08 15.06 З 6 н/о н/о +24.7 +3.9 26 +24 +24 комфорт 1017.2 1013.6
09 15.06 З 7 50 км 1/0
[Ci fib]
+26.5 +4.0 23 +25 +29 комфорт 1017.2 1013.6
10 15.06 СЗ 4 н/о н/о +28.2 +3.2 20 +26 +26 жарко 1017.2 1013.6
11 15.06 В 7 н/о н/о +27.1 +10.2 35 +28 +28 жарко 1017.4 1013.8
12 15.06 В 5 50 км 1/0
[Ci fib]
+28.2 +8.0 28 +28 +40 жарко 1017.0 1013.4
13 15.06 В 5 н/о н/о +28.9 +9.0 29 +29 +29 жарко 1016.6 1013.0
14 15.06 Ю 4 н/о н/о +29.1 +9.8 30 +29 +29 жарко 1016.0 1012.5
15 15.06 Ю 4 50 км 1/0
[Ci fib]
+27.1 +11.7 38 +28 +36 жарко 1016.1 1012.5
16 15.06 Ю 4 н/о н/о +26.6 +11.0 38 +28 +28 жарко 1016.1 1012.5
17 15.06 Ю 4 н/о н/о +26.2 +9.9 36 +27 +27 жарко 1016.1 1012.5
18 15.06 ЮВ 3 50 км 1/0
[Ci fib]
+25.1 +10.2 39 +26 +27 жарко 1016.7 1013.1 +29.8
19 15.06 Ю 2 н/о н/о +24.0 +10.4 42 +25 +25 комфорт 1017.2 1013.6
20 15.06 штиль 0 н/о н/о +22.4 +13.5 57 +25 +25 комфорт 1017.7 1014.0
21 15.06 С 2 20 км ясно +22.2 +9.4 44 +24 +24 комфорт 1018.6 1014.9
22 15.06 С 1 н/о н/о +21.2 +8.5 44 +22 +22 комфорт 1018.9 1015.2
23 15.06 СЗ 1 н/о н/о +18.8 +9.8 56 +20 +20 1018.8 1015.2
00 16.06 З 2 20 км ясно +19.1 +8.4 50 +21 +21 комфорт 1018.7 1015.1
01 16.06 СЗ 3 н/о н/о +19.0 +7.7 48 +20 +20 1018.1 1014.5
02 16.06 СЗ 3 н/о н/о +18.6 +7.4 48 +19 +19 1017.7 1014.1
03 16.06 С 1 20 км ясно +18.6 +7.1 47 +20 +20 1017.5 1013.9
04 16.06 С 2 н/о н/о +17.9 +7.3 50 +18 +18 1017.8 1014.2
05 16.06 СВ 3 н/о н/о +18.7 +11.3 62 +19 +19 1018.4 1014.8
06 16.06 В 3 20 км ясно +21.4 +15.0 67 +25 +26 комфорт 1019.0 1015.3 +17.6
07 16.06 СВ 1 н/о н/о +22.5 +15.6 65 +26 +26 жарко 1019.5 1015.8
08 16.06 В 5 н/о н/о +24.4 +14.2 53 +27 +27 жарко 1019.8 1016.2
09 16.06 В 7 20 км 6/0
[Cs]
+22.6 +16.5 68 +27 +30 душно 1020.2 1016.5
10 16.06 В 7 н/о н/о +22.5 +16.3 68 +27 +27 душно 1020.2 1016.5
11 16.06 В 6 н/о н/о +23.4 +16.4 65 +28 +28 душно 1020.1 1016.5
12 16.06 В 7 20 км 8/0
[Cs]
+23.5 +15.0 59 +26 +31 жарко 1019.9 1016.3
13 16.06 В 6 н/о н/о +23.3 +15.9 63 +28 +28 душно 1019.4 1015.8
14 16.06 В 7 н/о н/о +22.7 +16.3 67 +27 +27 душно 1019.1 1015.4
15 16.06 В 6 20 км 8/0
[Cs]
+22.6 +15.9 66 +27 +30 душно 1018.9 1015.2
16 16.06 В 5 н/о н/о +22.7 +16.0 66 +27 +27 душно 1018.4 1014.7
17 16.06 В 4 н/о н/о +22.3 +16.4 69 +27 +27 душно 1018.5 1014.8
18 16.06 В 3 20 км 6/0
[Cs]
+21.9 +15.6 67 +26 +26 душно 1018.6 1014.9 +24.8
19 16.06 В 4 н/о н/о +21.1 +15.6 71 +24 +24 комфорт 1017.9 1014.2
20 16.06 СЗ 1 н/о н/о +21.4 +14.8 66 +24 +24 комфорт 1018.3 1014.6
21 16.06 С 1 28 км 5/0
[As trans Ci sp]
+21.2 +14.4 65 +24 +24 комфорт 1018.8 1015.1
22 16.06 ЮВ 2 н/о н/о +21.0 +12.9 60 +24 +24 комфорт 1018.8 1015.1
23 16.06 З 1 н/о н/о +18.5 +12.5 68 +20 +20 1018.6 1015.0
00 17.06 З 2 30 км 3/0
[As trans Ci sp]
+17.4 +12.1 71 +18 +18 1018.5 1014.9
01 17.06 З 1 н/о н/о +16.9 +11.8 72 +18 +18 1018.3 1014.6
02 17.06 СЗ 2 н/о н/о +16.7 +12.2 75 +17 +17 1017.7 1014.0
03 17.06 СЗ 2 35 км ясно +16.6 +12.7 78 +17 +17 1017.2 1013.5
04 17.06 З 2 н/о н/о +16.6 +12.7 78 +17 +17 1016.9 1013.2
05 17.06 ЮЗ 3 н/о н/о +16.4 +12.0 75 +16 +16 1017.1 1013.4
06 17.06 ЮЗ 3 50 км ясно +18.5 +12.3 67 +19 +21 1017.4 1013.8 +15.8
07 17.06 ЮЗ 3 н/о н/о +22.2 +11.1 49 +24 +24 комфорт 1017.7 1014.0
08 17.06 ЮЗ 4 н/о н/о +24.5 +11.4 44 +26 +26 жарко 1017.6 1014.0
09 17.06 ЮЗ 3 50 км ясно +26.2 +9.9 36 +27 +37 жарко 1017.5 1013.9
10 17.06 Ю 3 н/о н/о +28.4 +11.5 35 +29 +29 жарко 1017.4 1013.8
11 17.06 Ю 4 н/о н/о +27.9 +13.4 41 +30 +30 жарко 1017.2 1013.6
12 17.06 Ю 4 50 км ясно +27.4 +12.1 39 +29 +44 жарко 1016.8 1013.2
13 17.06 Ю 4 н/о н/о +27.3 +13.4 42 +29 +29 жарко 1016.6 1013.0
14 17.06 ЮВ 4 н/о н/о +27.4 +14.1 44 +30 +30 жарко 1016.4 1012.8
15 17.06 В 5 30 км 1/1 300 м
[St]
+26.9 +15.3 49 +30 +36 душно 1016.2 1012.6
16 17.06 В 4 н/о н/о +25.7 +16.7 58 +29 +29 душно 1015.9 1012.3
17 17.06 В 4 н/о н/о +24.9 +16.8 61 +29 +29 душно 1015.8 1012.2
18 17.06 В 3 30 км 1/1 300 м
[St]
+23.1 +17.4 70 +28 +30 душно 1016.0 1012.4 +28.4
19 17.06 В 2 н/о н/о +22.2 +17.1 73 +27 +27 душно 1015.9 1012.3
20 17.06 штиль 0 н/о н/о +20.9 +17.7 82 +25 +25 комфорт 1016.1 1012.4
21 17.06 ЮЗ 2 21 км ясно +20.0 +17.0 83 +24 +24 комфорт 1016.6 1012.9
22 17.06 З 2 н/о н/о +19.9 +16.9 83 +23 +23 комфорт 1016.7 1013.0

 

Местоположение метеостанции Аликанте аэропорт (Испания): широта 38.28 долгота -0.55 высота над уровнем моря 31 м.

В архиве по умолчанию представлена погода в Аликанте аэропорту за последнюю неделю. Архивные данные за месяц целиком и за предыдущие месяцы, начиная с января 2011 года, Вы можете получить, выбрав интересующий диапазон дат из раскрывающегося списка и нажав кнопку "Ввод!".


*Определитесь, кто Вы:
робот инопланетянин человек

Внимание! Время в таблицах - всемирное. Для получения местного времени необходимо прибавить поправку, которая равна 1 ч.

Смотрите также архив погоды в соседних городах и на ближайших метеорологических станциях:

Погода в Аликанте (Испания) (11 км)
Погода в Пиносо (Испания) (45 км)
Погода в Сан-Хавьере (Испания) (60 км)
Погода в Мурсие (Испания) (63 км)
Погода в Екле (Испания) (64 км)
Погода в Мурсия аэропорту (Испания) (70 км)
Погода в Сьеса - Парк де Бомберос (Испания) (73 км)
Погода в Хативе (Испания) (80 км)
Погода в Оливе (Испания) (82 км)
Погода в Хавеа - Аюнтамиенто (Испания) (84 км)

Пояснения к столбцам:

Ветер - указаны скорость ветра в м/с - средняя за 10 мин, порывы в срок и между сроками (в фигурных скобках) и направление, откуда дует ветер: С - северный, СВ - северо-восточный, В - восточный, ЮВ - юго-восточный, Ю - южный, ЮЗ - юго-западный, З - западный, СЗ - северо-западный.
Видимость - горизонтальная дальность видимости в метрах или километрах. При видимости от 1 до 10 км при отсутствии осадков обычно наблюдается дымка, при ухудшении видимости до 1 км и менее - туман. В сухую погоду видимость может ухудшаться дымом, пылью или мглою.
Явления - указаны атмосферные явления, наблюдавшиеся в срок или в последний час перед сроком; фигурными скобками обозначены явления, наблюдавшиеся между сроками (за 1-3 часа до срока); квадратными скобками обозначены град или гололедные отложения с указанием их диаметра в мм.
Облачность - указаны через наклонную черту общая и нижняя облачность в баллах и высота нижней границы облаков в метрах; квадратными скобками обозначены формы облаков: Ci - перистые, Cs - перисто-слоистые, Cc - перисто-кучевые, Ac - высококучевые, As - высокослоистые, Sc - слоисто-кучевые, Ns - слоисто-дождевые, Cu - кучевые, Cb - кучево-дождевые. Подробнее классификацию облаков см. в Атласе облаков (PDF).
T - Температура воздуха - температура, измеренная на высоте 2 м над землей.
Td - Температура точки росы - температура, при понижении до которой содержащийся в воздухе водяной пар достигнет насыщения.
f - Относительная влажность воздуха - влажноcть воздуха, измеренная на высоте 2 м над землей.
Te - Эффективная температура - температура, которую ощущает одетый по сезону человек в тени. Характеристика душности погоды. При расчете учитывается влияние влажности воздуха и скорости ветра на теплоощущения человека.
Tes - Эффективная температура на солнце - температура, которую ощущает человек, с поправкой на солнечный нагрев. Характеристика знойности погоды. Зависит от высоты солнца над горизонтом, облачности и скорости ветра. Ночью, в пасмурную погоду, а также при ветре 12 м/с и более поправка равна нулю.
P - Атмосферное давление - приведенное к уровню моря атмосферное давление.
Po - Атмосферное давление - измеренное на уровне метеостанции атмосферное давление.
Tmin - Минимальная температура - минимум температуры воздуха на высоте 2 м над землей.
Tmax - Максимальная температура - максимум температуры воздуха на высоте 2 м над землей.
R - Количество осадков - Количество выпавших осадков за период времени, мм. При наведении курсора мыши на число - период времени, за который выпало указанное количество осадков.
R24 - Количество осадков - Количество выпавших осадков за 24 часа, мм.
S - Снежный покров - Высота снежного покрова, см. При наведении курсора мыши на число - состояние снежного покрова и степень покрытия местности в баллах.